PulseSat

PulseSat

MOLNIYA 3-10

Last updated on Dec. 9, 2018, 12:08 a.m. UTC

1 11057U 78095A   18341.71132476  .00001932  00000-0  23129-3 0  9996
2 11057  62.5043 178.5408 5986259 285.4039  18.9834  4.08139873331018
UTC
Height (km)
Latitude
Longitude
Inclination
Orbital Period

Next 30 passes for location: Hong Kong

Rise time Rise Azimuth (degrees) Set time Set Azimuth (degrees) Duration Max altitude (degrees)

No matching passes for this satellites

PulseSat

PulseSat is the new satellites software and hardware trackering solution by Pulsely.
Satellite Two Line Element Set source: US Air Force Space Command

Download PulseSat for iOS
© 2017 Pulsely Limited